TimeAEST,TemperatureF,Dew PointF,Humidity,Sea Level PressureIn,VisibilityMPH,Wind Direction,Wind SpeedMPH,Gust SpeedMPH,PrecipitationIn,Events,Conditions,WindDirDegrees,DateUTC
12:00 AM,66,40,27,30.12,,South,9.2,,,,Overcast,180,2013-07-24 14:00:00
12:00 AM,66.2,41.0,40,30.09,-9999.0,South,9.2,-,N/A,,Clear,180,2013-07-24 14:00:00
12:30 AM,66.2,41.0,40,30.09,-9999.0,South,8.1,-,N/A,,Clear,170,2013-07-24 14:30:00
1:00 AM,66,41,28,30.11,,SSE,8.1,,,,,160,2013-07-24 15:00:00
1:00 AM,66.2,41.0,40,30.09,-9999.0,SSE,8.1,-,N/A,,Clear,160,2013-07-24 15:00:00
1:30 AM,62.6,44.6,52,30.09,-9999.0,SE,8.1,-,N/A,,Clear,130,2013-07-24 15:30:00
2:00 AM,62.6,46.4,55,30.09,-9999.0,SE,10.4,-,N/A,,Clear,130,2013-07-24 16:00:00
2:30 AM,62.6,46.4,55,30.06,-9999.0,SE,11.5,-,N/A,,Clear,130,2013-07-24 16:30:00
3:00 AM,66,47,39,30.07,,SSE,9.2,,,,Overcast,160,2013-07-24 17:00:00
3:00 AM,66.2,46.4,49,30.06,-9999.0,SSE,9.2,-,N/A,,Clear,160,2013-07-24 17:00:00
3:30 AM,66.2,48.2,52,30.06,-9999.0,SSE,10.4,-,N/A,,Clear,160,2013-07-24 17:30:00
4:00 AM,63,49,50,30.07,,SE,12.7,,,,,130,2013-07-24 18:00:00
4:00 AM,62.6,48.2,59,30.06,-9999.0,SE,12.7,-,N/A,,Clear,130,2013-07-24 18:00:00
4:30 AM,62.6,50.0,63,30.06,6.2,SSE,11.5,-,N/A,,Mostly Cloudy,150,2013-07-24 18:30:00
5:00 AM,64.4,48.2,56,30.06,6.2,SSE,15.0,-,N/A,,Scattered Clouds,160,2013-07-24 19:00:00
5:30 AM,66.2,50.0,56,30.06,6.2,SSE,17.3,-,N/A,,Partly Cloudy,160,2013-07-24 19:30:00
6:00 AM,65,50,47,30.09,19,SSE,17.3,,,,Partly Cloudy,160,2013-07-24 20:00:00
6:00 AM,64.4,50.0,59,30.06,-9999.0,SSE,17.3,-,N/A,,Unknown,160,2013-07-24 20:00:00
6:30 AM,64.4,48.2,56,30.09,6.2,SSE,18.4,-,N/A,,Partly Cloudy,160,2013-07-24 20:30:00
7:00 AM,65,49,45,30.11,,SSE,18.4,,,,,160,2013-07-24 21:00:00
7:00 AM,64.4,48.2,56,30.09,6.2,SSE,18.4,-,N/A,,Partly Cloudy,160,2013-07-24 21:00:00
7:30 AM,64.4,48.2,56,30.09,6.2,South,17.3,-,N/A,,Partly Cloudy,170,2013-07-24 21:30:00
8:00 AM,66.2,48.2,52,30.09,6.2,SSE,19.6,-,N/A,,Partly Cloudy,160,2013-07-24 22:00:00
8:32 AM,68.0,48.2,49,30.12,6.2,SSE,18.4,29.9,N/A,,Partly Cloudy,160,2013-07-24 22:32:00
9:00 AM,69,50,40,30.13,19,South,17.3,,,,Partly Cloudy,170,2013-07-24 23:00:00
9:04 AM,68.0,50.0,52,30.12,6.2,South,17.3,28.8,N/A,,Partly Cloudy,170,2013-07-24 23:04:00
9:30 AM,69.8,51.8,53,30.12,6.2,South,20.7,32.2,N/A,,Partly Cloudy,170,2013-07-24 23:30:00
10:00 AM,71,51,38,30.14,,SSE,21.9,,,,,160,2013-07-25 00:00:00
10:00 AM,71.6,51.8,50,30.12,6.2,SSE,21.9,-,N/A,,Partly Cloudy,160,2013-07-25 00:00:00
10:30 AM,71.6,51.8,50,30.12,6.2,South,20.7,-,N/A,,Partly Cloudy,170,2013-07-25 00:30:00
11:00 AM,71.6,50.0,46,30.12,6.2,SSE,20.7,-,N/A,,Partly Cloudy,160,2013-07-25 01:00:00
11:30 AM,73.4,51.8,47,30.09,6.2,SSE,19.6,-,N/A,,Partly Cloudy,160,2013-07-25 01:30:00
12:00 PM,73,52,36,30.11,19,SSE,18.4,,,,Partly Cloudy,160,2013-07-25 02:00:00
12:00 PM,73.4,51.8,47,30.09,6.2,SSE,18.4,-,N/A,,Partly Cloudy,160,2013-07-25 02:00:00
12:23 PM,75.2,51.8,44,30.09,6.2,SE,24.2,-,N/A,,Partly Cloudy,130,2013-07-25 02:23:00
12:30 PM,73.4,51.8,47,30.09,6.2,SE,23.0,-,N/A,,Partly Cloudy,140,2013-07-25 02:30:00
12:39 PM,75.2,51.8,44,30.09,6.2,SE,21.9,33.4,N/A,,Partly Cloudy,140,2013-07-25 02:39:00
1:00 PM,74,51,34,30.09,,SE,21.9,,,,,140,2013-07-25 03:00:00
1:00 PM,75.2,51.8,44,30.06,6.2,SE,21.9,-,N/A,,Partly Cloudy,140,2013-07-25 03:00:00
1:30 PM,75.2,51.8,44,30.06,6.2,SE,19.6,-,N/A,,Partly Cloudy,140,2013-07-25 03:30:00
2:00 PM,77.0,53.6,44,30.06,6.2,SE,20.7,-,N/A,,Scattered Clouds,130,2013-07-25 04:00:00
2:30 PM,73.4,53.6,50,30.04,6.2,SE,18.4,-,N/A,,Scattered Clouds,130,2013-07-25 04:30:00
3:00 PM,74,53,38,30.06,19,SSE,15.0,,,,Partly Cloudy,160,2013-07-25 05:00:00
3:00 PM,73.4,53.6,50,30.04,6.2,SSE,15.0,-,N/A,,Scattered Clouds,160,2013-07-25 05:00:00
3:30 PM,73.4,53.6,50,30.04,6.2,SSE,13.8,-,N/A,,Scattered Clouds,160,2013-07-25 05:30:00
4:00 PM,72,54,44,30.06,,SE,19.6,,,,,140,2013-07-25 06:00:00
4:00 PM,71.6,55.4,57,30.04,6.2,SE,19.6,-,N/A,,Scattered Clouds,140,2013-07-25 06:00:00
4:30 PM,71.6,55.4,57,30.06,6.2,South,16.1,-,N/A,,Scattered Clouds,170,2013-07-25 06:30:00
5:00 PM,71.6,55.4,57,30.06,6.2,SSE,17.3,-,N/A,,Scattered Clouds,160,2013-07-25 07:00:00
5:30 PM,69.8,55.4,60,30.06,6.2,South,18.4,-,N/A,,Scattered Clouds,170,2013-07-25 07:30:00
6:00 PM,69,55,52,30.08,,SSE,18.4,,,,,160,2013-07-25 08:00:00
6:00 PM,68.0,55.4,64,30.06,6.2,SSE,18.4,-,N/A,,Scattered Clouds,160,2013-07-25 08:00:00
6:30 PM,68.0,55.4,64,30.09,6.2,South,18.4,-,N/A,,Scattered Clouds,170,2013-07-25 08:30:00
7:00 PM,68,55,54,30.11,,South,13.8,,,,,170,2013-07-25 09:00:00
7:00 PM,68.0,55.4,64,30.09,6.2,South,13.8,-,N/A,,Scattered Clouds,170,2013-07-25 09:00:00
7:30 PM,68.0,55.4,64,30.09,6.2,South,13.8,-,N/A,,Mostly Cloudy,170,2013-07-25 09:30:00
8:00 PM,68.0,55.4,64,30.09,6.2,South,11.5,-,N/A,,Mostly Cloudy,180,2013-07-25 10:00:00
8:30 PM,68.0,55.4,64,30.09,6.2,South,16.1,-,N/A,,Scattered Clouds,170,2013-07-25 10:30:00
9:00 PM,67,55,57,30.12,,South,15.0,,,,,170,2013-07-25 11:00:00
9:00 PM,68.0,55.4,64,30.09,6.2,South,15.0,-,N/A,,Mostly Cloudy,170,2013-07-25 11:00:00
9:30 PM,68.0,55.4,64,30.12,6.2,South,12.7,-,N/A,,Mostly Cloudy,170,2013-07-25 11:30:00
10:00 PM,68,56,57,30.14,,South,12.7,,,,,170,2013-07-25 12:00:00
10:00 PM,68.0,57.2,68,30.12,6.2,South,12.7,-,N/A,,Mostly Cloudy,170,2013-07-25 12:00:00
10:30 PM,68.0,57.2,68,30.12,6.2,South,13.8,-,N/A,,Overcast,170,2013-07-25 12:30:00
11:00 PM,69.8,57.2,64,30.12,6.2,SSE,16.1,-,N/A,,Mostly Cloudy,160,2013-07-25 13:00:00
11:30 PM,69.8,59.0,68,30.09,6.2,South,17.3,-,N/A,,Mostly Cloudy,170,2013-07-25 13:30:00